Webcam & Weather

This webcam image will automatically refresh every 15 seconds.


METAR and TAF for EGLL Heathrow (12 Nautical Miles East of White Waltham)

Available data for EGLL from the past hour
LONDON/HEATHROW
Metar
EGLL 211720Z AUTO 23012KT 9999 BKN019 13/10 Q1008 NOSIG

17:20 UTC

Wind: 230° 12kt

Visibility: 9999 m

Sky: BKN 1900 ft

Temp: 13 deg C / 55.4 deg F

Dewpoint: 10 deg C / 50 deg F

Pressure: 1008 hPa

TAF
TAF EGLL 211112Z 2112/2218 23012KT 9999 SCT025 BECMG 2118/2121 23016G26KT PROB40 TEMPO 2121/2203 BKN014 BECMG 2209/2212 20020G32KT

Play 24 hour timelapse | Play 30 day timelapse

Comments are closed.